Home   Weather   Germany   Leipzig   Past weeks
Flag for Germany

Past Weather in Leipzig, Saxony, Germany — Yesterday and Last 2 Weeks

Currently: 55 °F. Scattered showers. Passing clouds. (Weather station: Leipzig-Schkeuditz, Germany). See more current weather

Past Weather in Leipzig — Graph

°F

Leipzig Temperature Yesterday

Maximum temperature yesterday: 63 °F (at 4:20 pm)
Minimum temperature yesterday: 39 °F (at 5:50 am)
Average temperature yesterday: 50 °F

High & Low Weather Summary for the Past Weeks

 TemperatureHumidityPressure
High68 °F (Sep 24, 2:20 pm)100% (Sep 21, 5:20 am)30.33 "Hg (Sep 21, 5:20 am)
Low39 °F (Sep 29, 5:50 am)45% (Sep 17, 2:20 pm)29.36 "Hg (Sep 27, 4:50 am)
Average52 °F79%29.84 "Hg
* Reported Sep 16 7:20 pm — Oct 1 7:20 pm, Leipzig. Weather by CustomWeather, © 2022

Note: Actual official high and low records may vary slightly from our data, if they occured in-between our weather recording intervals... More about our weather records

Leipzig Weather History for the Previous 24 Hours

Scroll right to see more
 ConditionsComfort  
Time TempWeatherWind HumidityBarometerVisibility
7:20 pm
Sat, Oct 1
55 °FScattered showers. Passing clouds.14 mph82%29.74 "HgN/A
6:50 pm55 °FClear.14 mph82%29.74 "Hg10 mi
6:20 pm55 °FPassing clouds.14 mph82%29.71 "HgN/A
5:20 pm55 °FScattered clouds.16 mph82%29.71 "HgN/A
3:50 pm55 °FMostly cloudy.15 mph77%29.71 "HgN/A
3:20 pm54 °FPartly sunny.17 mph82%29.71 "HgN/A
2:50 pm54 °FLight rain. Partly sunny.16 mph82%29.71 "HgN/A
2:20 pm52 °FPartly sunny.13 mph88%29.71 "HgN/A
1:50 pm52 °FCloudy.15 mph88%29.71 "HgN/A
1:20 pm52 °FPassing clouds.15 mph88%29.71 "HgN/A
12:50 pm50 °FLight rain. Scattered clouds.15 mph94%29.71 "HgN/A
12:20 pm50 °FLight rain. Broken clouds.16 mph94%29.71 "HgN/A
11:50 am50 °FLight rain. Broken clouds.13 mph88%29.71 "HgN/A
11:20 am50 °FLight rain. Partly sunny.16 mph88%29.71 "HgN/A
10:50 am50 °FLight rain. Clear.16 mph88%29.71 "HgN/A
10:20 am50 °FLight rain. Clear.15 mph82%29.74 "HgN/A
9:50 am50 °FLight rain. Clear.15 mph82%29.74 "HgN/A
9:20 am50 °FSunny.16 mph82%29.74 "Hg10 mi
8:50 am50 °FSunny.15 mph82%29.77 "Hg10 mi
8:20 am50 °FSunny.15 mph82%29.77 "Hg10 mi
7:50 am50 °FSunny.13 mph82%29.77 "Hg10 mi
7:20 am48 °FSunny.9 mph82%29.80 "Hg10 mi
6:50 am48 °FClear.10 mph82%29.80 "Hg10 mi
6:20 am48 °FClear.9 mph82%29.80 "Hg10 mi
5:50 am48 °FClear.9 mph82%29.80 "Hg10 mi
5:20 am46 °FClear.8 mph87%29.83 "Hg10 mi
4:20 am46 °FClear.9 mph87%29.83 "Hg10 mi
3:20 am45 °FClear.10 mph87%29.86 "Hg10 mi
2:50 am45 °FClear.9 mph87%29.86 "Hg10 mi
1:20 am48 °FClear.8 mph82%29.86 "Hg10 mi
12:50 am48 °FClear.8 mph82%29.89 "Hg10 mi
12:20 am46 °FClear.9 mph87%29.89 "Hg10 mi
11:50 pm
Fri, Sep 30
48 °FClear.8 mph82%29.86 "Hg10 mi
11:20 pm48 °FClear.7 mph82%29.86 "Hg10 mi
10:20 pm48 °FClear.3 mph82%29.89 "Hg10 mi
9:20 pm50 °FClear.5 mph76%29.89 "Hg10 mi
8:50 pm50 °FClear.6 mph76%29.86 "Hg10 mi
8:20 pm48 °FClear.6 mph76%29.86 "Hg10 mi
Weather by CustomWeather, © 2022

See weather overview